SCP
1 0 0 0 0 0 0 0 0 0 0 0 0 0 0 0 0 0 0 0 0 0 0 0 0 0 0 0 0 0 0 0 0 0 0 0 0 0
0 0 0 0 0 0 0 0 0 0 0 0 0 0 0 0 0 0 0 0 0 0 0 0 0 0 0 0 0 0 0 0 0 0 0 0 0 0
0 0 0 0 0 0 0 0 0 0 0 0 0 0 0 0 0 0 0 0 0 0 0 0 0 0 0 0 0 0 0 0 0 0 0 0 0 0
0 0 0 0 0 0 0 0 0 0 0 0 0 0 0 0 0 0 0 0 0 0 0 0 0 0 0 0 0 0 0 0 0 0 0 0 0 0
0 0 0 0 0 0 0 0 0 0 0 0 0 0 0 0 0 0 0 0 0 0 0 0 0 0 0 0 0 0 0 0 0 0 0 0 0 0
0 0 0 0 0 0 0 0 0 0 0 0 0 0 0 0 0 0 0 0 0 0 0 0 0 0 0 0 0 0 0 0 0 0 0 0 0 0
0 0 0 0 0 0 0 0 0 0 0 0 0 0 0 0 0 0 0 0 0 0 0 0 0 0 0 0 0 0 0 0 0 0 0 0 0 0
0 0 0 0 0 0 0 0 0 0 0 0 0 0 0 0 0 0 0 0 0 0 0 0 0 0 0 0 0 0 0 0 0 0 0 0 0 0
0 0 0 0 0 0 0 0 0 0 0 0 0 0 0 0 0 0 0 0 0 0 0 0 0 0 0 0 0 0 0 0 0 0 0 0 0 0
0 0 0 0 0 0 0 0 0 0 0 0 0 0 0 0 0 0 0 0 0 0 0 0 0 0 0 0 0 0 0 0 0 0 0 0 0 0
0 0 0 0 0 0 0 0 0 0 0 0 0 0 0 0 0 0 0 0 0 0 0 0 0 0 0 0 0 0 0 0 0 0 0 0 0 0
0 0 0 0 0 0 0 0 0 0 0 0 0 0 0 0 0 0 0 0 0 0 0 0 0 0 0 0 0 0 0 0 0 0 0 0 0 0
0 0 0 0 0 0 0 0 0 0 0 0 0 0 0 0 0 0 0 0 0 0 0 0 0 0 0 0 0 0 0 0 0 0 0 0 0 0
0 0 0 0 0 0 0 0 0 0 0 0 0 0 0 0 0 0 0 0 0 0 0 0 0 0 0 0 0 0 0 0 0 0 0 0 0 0
0 0 0 0 0 0 0 0 0 0 0 0 0 0 0 0 0 0 0 0 0 0 0 0 0 0 0 0 0 0 0 0 0 0 0 0 0 0
0 0 0 0 0 0 0 0 0 0 0 0 0 0 0 0 0 0 0 0 0 0 0 0 0 0 0 0 0 0 0 0 0 0 0 0 0 0
0 0 0 0 0 0 0 0 0 0 0 0 0 0 0 0 0 0 0 0 0 0 0 0 0 0 0 0 0 0 0 0 0 0 0 0 0 0
0 0 0 0 0 0 0 0 0 0 0 0 0 0 0 0 0 0 0 0 0 0 0 0 0 0 0 0 0 0 0 0 0 0 0 0 0 0
0 0 0 0 0 0 0 0 0 0 0 0 0 0 0 0 0 0 0 0 0 0 0 0 0 0 0 0 0 0 0 0 0 0 0 0 0 0
0 0 0 0 0 0 0 0 0 0 0 0 0 0 0 0 0 0 0 0 0 0 0 0 0 0 0 0 0 0 0 0 0 0 0 0 0 0
0 0 0 0 0 0 0 0 0 0 0 0 0 0 0 0 0 0 0 0 0 0 0 0 0 0 0 0 0 0 0 0 0 0 0 0 0 0
0 0 0 0 0 0 0 0 0 0 0 0 0 0 0 0 0 0 0 0 0 0 0 0 0 0 0 0 0 0 0 0 0 0 0 0 0 0
0 0 0 0 0 0 0 0 0 0 0 0 0 0 0 0 0 0 0 0 0 0 0 0 0 0 0 0 0 0 0 0 0 0 0 0 0 0
Wind_Speed
4 3 3 2 3 3 3 4 5 5 3 1 1 1 2 3 4 3 3 6 6 6 6 6 5 5 5 5 5 5 5 4 3 3 2 2 2 2
4 5 4 3 3 3 3 3 3 4 4 2 2 2 3 3 4 2 2 4 3 3 4 4 4 4 4 4 4 4 4 3 3 2 1 1 0 1
6 6 5 5 4 4 3 4 4 4 7 3 2 2 3 3 2 1 1 1 1 3 3 4 4 4 4 4 4 4 3 3 3 3 2 2 2 2
7 7 6 5 6 4 4 5 4 4 7 7 3 2 2 2 2 1 1 1 1 3 5 5 5 5 5 5 5 5 4 4 4 4 4 4 4 4
7 7 6 7 7 5 5 5 5 5 5 6 4 2 1 1 2 0 1 0 2 3 5 6 7 6 6 6 6 6 6 6 6 5 5 5 5 5
8 7 6 6 6 6 6 6 6 6 6 5 4 3 2 1 2 1 0 1 1 1 2 3 5 7 8 8 8 8 8 8 8 8 8 7 7 7
8 8 8 9 9 6 6 5 6 5 5 5 4 2 2 2 1 0 1 1 1 1 0 1 2 2 4 7 9 10 10 10 10 10 9 9 9 8
7 6 7 9 10 11 10 8 7 6 5 4 3 3 1 1 1 1 1 1 1 1 1 2 1 3 3 4 8 10 11 11 11 11 11 10 10 10
6 6 6 7 8 7 9 11 8 7 7 6 5 3 2 2 2 2 1 1 2 2 1 2 1 3 4 5 10 11 12 12 12 12 11 11 11 11
6 6 6 7 6 6 7 8 7 5 4 4 4 3 2 2 2 2 2 1 1 1 1 1 2 2 3 3 7 10 11 11 11 11 11 11 11 11
6 6 6 6 8 9 8 7 6 5 5 5 4 3 3 3 3 3 3 3 2 3 1 1 1 2 3 3 4 7 9 10 11 11 12 12 12 10
4 6 8 7 8 8 6 5 5 3 3 3 4 4 3 2 2 2 3 2 1 2 2 1 1 1 3 3 3 3 3 7 10 11 12 13 12 6
3 3 4 7 8 7 5 3 1 1 2 3 3 3 3 2 2 0 2 3 3 3 3 2 1 0 1 3 4 3 3 3 3 5 9 12 12 8
2 2 3 5 6 6 3 3 4 4 3 3 2 2 2 2 2 2 2 3 4 5 4 3 2 2 1 2 4 4 3 3 3 4 4 7 9 11
1 3 4 5 5 4 4 4 4 3 2 2 1 1 2 3 2 2 3 2 2 3 3 4 4 3 3 3 3 3 3 4 3 3 4 4 4 3
3 5 6 6 4 3 4 3 2 1 1 1 1 2 2 2 2 1 2 2 3 4 4 2 3 4 3 4 3 4 3 4 4 4 3 4 4 4
3 3 4 4 4 3 3 2 2 2 1 0 1 1 2 2 2 2 1 1 1 3 4 5 3 2 5 4 3 4 4 4 4 4 3 4 5 5
3 2 2 2 2 1 1 2 1 1 0 0 0 1 1 1 2 2 1 1 1 2 3 3 3 4 4 3 6 4 4 4 4 4 3 3 6 6
1 1 1 1 1 1 1 1 1 1 1 0 0 1 1 1 1 2 2 2 2 3 3 3 1 0 2 5 7 5 4 4 4 4 4 4 5 7
0 1 2 2 2 2 2 2 2 1 1 1 1 1 1 1 1 2 2 2 3 3 4 3 2 2 4 4 5 6 6 5 4 5 5 4 5 8
2 2 3 3 2 2 2 2 2 2 2 1 1 2 1 1 2 2 3 4 3 3 4 5 6 6 3 1 3 5 6 7 8 6 5 4 5 5
3 3 3 3 3 3 2 2 2 2 2 2 2 2 2 2 3 3 3 3 3 4 4 5 5 3 1 2 5 6 6 7 8 10 11 10 5 5
4 4 4 3 3 3 2 3 3 3 3 3 3 3 2 2 3 3 4 4 4 4 4 5 4 3 3 4 5 5 7 7 5 6 7 10 13 17
Wind_Direction
57 63 68 71 76 82 103 126 135 136 124 121 96 73 92 87 90 79 82 104 102 104 111 112 114 119 123 125 126 123 120 120 119 111 102 96 91 76
59 66 66 69 77 79 91 92 104 124 124 131 129 137 128 122 128 111 108 113 115 127 136 136 137 142 141 140 144 146 149 153 148 150 150 128 92 13
50 61 65 70 74 69 78 86 92 105 116 104 94 111 115 127 120 111 130 137 177 186 182 174 168 170 167 167 170 175 179 184 194 206 209 230 256 273
51 59 60 71 71 69 76 81 89 98 121 122 113 107 119 143 136 156 198 199 207 217 210 201 197 198 198 198 202 206 211 215 220 225 235 248 261 271
52 60 61 71 70 73 80 85 91 95 97 116 113 98 90 112 109 145 187 273 231 220 216 217 218 218 219 220 222 226 230 233 234 236 242 250 260 269
50 54 57 67 77 83 85 87 95 95 96 103 103 91 81 80 94 98 4 304 265 236 224 217 226 232 233 233 233 234 236 237 240 242 245 249 254 261
49 49 56 67 73 82 98 97 99 98 100 101 98 83 69 79 116 192 148 322 305 272 264 258 232 243 245 243 242 242 241 241 242 244 247 251 254 258
51 45 52 53 62 71 84 94 107 116 115 108 102 106 105 128 144 120 109 83 304 285 148 275 212 248 250 240 244 245 245 245 246 247 249 251 253 257
53 50 55 50 52 63 66 66 70 95 120 129 125 141 153 180 137 103 128 161 226 251 134 280 280 265 259 252 247 244 245 246 247 248 251 253 255 258
52 56 60 47 51 71 74 67 57 52 82 103 130 150 159 165 152 155 170 140 337 328 131 238 291 274 279 272 264 252 249 250 252 254 255 256 256 258
42 46 57 56 56 75 77 73 60 37 54 78 99 115 128 134 135 92 67 68 21 324 336 151 295 306 304 293 286 273 261 259 257 256 256 255 256 258
35 32 43 60 61 70 76 76 64 23 22 30 34 26 31 28 75 128 138 123 124 303 293 123 302 360 330 301 293 294 284 272 267 263 259 257 256 249
42 22 13 42 55 61 74 80 74 42 42 48 34 18 8 358 346 209 175 159 164 235 247 169 209 212 219 294 303 286 267 269 278 271 264 259 254 231
44 358 349 19 32 38 48 40 53 65 57 48 36 9 349 325 307 301 251 219 210 223 238 182 197 204 209 280 288 296 294 271 255 263 268 272 265 247
7 349 358 8 14 15 17 32 46 58 57 53 17 301 280 280 302 326 331 322 299 268 250 212 201 208 192 218 255 272 293 294 273 263 273 266 257 248
7 355 5 17 24 4 1 18 38 97 136 160 261 291 314 336 342 342 340 345 350 324 315 288 221 198 219 235 231 261 261 270 286 281 271 271 262 241
359 10 13 9 7 3 360 359 15 39 51 8 350 341 343 347 328 330 354 13 358 311 312 316 312 242 223 219 251 264 269 272 264 271 277 284 279 265
51 21 352 341 326 320 332 339 343 346 315 112 26 342 333 334 331 336 352 353 304 294 292 295 325 344 343 296 224 239 265 262 271 271 247 258 280 280
58 335 305 285 269 249 225 213 253 266 242 141 47 307 305 317 332 326 323 323 307 293 286 288 301 307 312 299 294 239 223 264 276 282 265 242 255 270
269 257 258 247 230 222 216 217 240 265 270 263 275 287 292 299 310 305 299 290 290 294 300 300 284 247 227 246 266 282 256 236 256 270 275 274 266 273
277 256 243 236 228 224 225 225 225 233 240 236 256 271 272 271 282 286 289 292 290 286 287 283 273 274 247 256 293 290 284 263 238 241 259 275 287 295
252 245 245 236 224 222 223 219 226 238 243 241 244 251 255 247 259 273 279 282 278 273 273 277 290 308 292 272 277 279 285 295 291 275 249 226 224 245
236 234 240 241 228 218 213 213 215 230 233 229 234 242 246 250 259 262 271 275 278 284 288 293 300 299 277 264 271 278 284 290 297 305 297 277 255 250